Location: Guferjoch
(46.7462°N, 8.4506°E)
Time: 12:42:14
(UTC+00:00)

Cosmos 1733 Rocket - Pass Details

Date: 14 July 2020
Orbit: 604 x 627 km, 82.5° (Epoch: 07 August)

Event Time Altitude Azimuth Distance (km) Brightness Sun altitude
Exits shadow 01:29:33 19° 159° (SSE) 1,459 4.6 -16.7°
Maximum altitude 01:32:21 46° 93° (E) 820 3.8 -16.4°
Drops below altitude 10° 01:36:30 10° 21° (NNE) 1,962 6.9 -16.1°
Sets 01:38:47 0° 15° (NNE) 2,872 8.0 -15.9°
